View from above orbital plane
|
View from above satellite
|
Ground track
|
The orbit data is extracted from the following two-line orbital elements,
1 06966U 73098B 21018.86534492 .00000040 00000-0 19793-4 0 9994
2 06966 74.0575 309.0747 0022286 311.4508 48.4733 14.43065461474412
Epoch (UTC): | 18 January 2021 20:46:05 |
Eccentricity: | 0.0022286 |
inclination: | 74.0575° |
perigee height: | 732 km |
apogee height: | 764 km |
right ascension of ascending node: | 309.0747° |
argument of perigee: | 311.4508° |
revolutions per day: | 14.43065461 |
mean anomaly at epoch: | 48.4733° |
orbit number at epoch: | 47441 |
The dashed part of the orbit path shows where the satellite is in the earth's shadow,
|
|